Leesburg, VA

11:00 AM EST on February 19, 2017 (GMT -0500)
Leesburg Executive

Weather History for KJYO - November, 2012

Change the Weather History Date:

Tuesday, November 13, 2012

  Actual Average (KIAD) Record (KIAD)
Temperature  
Mean Temperature 42 °F -  
Max Temperature 50 °F 55 °F 75 °F (1964)
Min Temperature 35 °F 34 °F 21 °F (1963)
Degree Days  
Heating Degree Days 22    
Moisture  
Dew Point 36 °F    
Average Humidity 77    
Maximum Humidity 100    
Minimum Humidity 53    
Precipitation  
Precipitation 0.66 in - - ()
Sea Level Pressure  
Sea Level Pressure 30.38 in    
Wind  
Wind Speed 11 mph (North)    
Max Wind Speed 18 mph    
Max Gust Speed 25 mph    
Visibility 9 miles    
Events Rain    
Averages and records for this station are not official NWS values.
T = Trace of Precipitation, MM = Missing Value Source: NWS Daily Summary

Daily Weather History Graph

Daily Weather History Graph

Search for Another Location

Airport or City:

Trip Planner

Search our weather history database for the weather conditions in past years. The results will help you decide how hot, cold, wet, or windy it might be!

Date:

Astronomy

Nov. 13, 2012 Rise Set
Actual Time 6:51 AM EST 4:57 PM EST
Civil Twilight 6:23 AM EST 5:25 PM EST
Nautical Twilight 5:50 AM EST 5:57 PM EST
Astronomical Twilight 5:19 AM EST 6:29 PM EST
Moon 6:27 AM EST (11/13) 4:48 PM EST (11/13)
Length of Visible Light 11h 02m
Length of Day
10h 05m
Waning Crescent, 0% of the Moon is Illuminated
Nov 13
Waning Crescent
Nov 13
New
Nov 20
First Quarter
Nov 28
Full
Dec 6
Last Quarter

Hourly Weather History & Observations

Time (EST) Temp. Windchill Dew Point Humidity Pressure Visibility Wind Dir Wind Speed Gust Speed Precip Events Conditions
12:15 AM 50.0 °F - 50.0 °F 100% 30.22 in 7.0 mi North 15.0 mph 21.9 mph 0.04 in Rain Rain
12:35 AM 50.0 °F - 48.2 °F 94% 30.23 in 5.0 mi North 11.5 mph - 0.10 in Rain Rain
12:55 AM 48.2 °F - 48.2 °F 100% 30.24 in 5.0 mi NNW 10.4 mph - 0.16 in Rain Rain
1:15 AM 48.2 °F - 46.4 °F 93% 30.25 in 5.0 mi North 10.4 mph 18.4 mph 0.03 in Rain Rain
1:35 AM 46.4 °F 42.4 °F 46.4 °F 100% 30.24 in 7.0 mi North 8.1 mph - 0.07 in Rain Rain
1:55 AM 46.4 °F 42.4 °F 46.4 °F 100% 30.24 in 7.0 mi North 8.1 mph - 0.09 in Rain Rain
2:15 AM 46.4 °F 41.5 °F 46.4 °F 100% 30.25 in 5.0 mi North 10.4 mph 16.1 mph 0.03 in Rain Rain
2:35 AM 46.4 °F 41.1 °F 46.4 °F 100% 30.25 in 7.0 mi North 11.5 mph 16.1 mph 0.07 in Rain Rain
2:55 AM 46.4 °F 42.4 °F 46.4 °F 100% 30.26 in 7.0 mi NNW 8.1 mph - 0.10 in Rain Rain
3:15 AM 46.4 °F 42.4 °F 46.4 °F 100% 30.26 in 10.0 mi NNW 8.1 mph - N/A Rain Light Rain
3:35 AM 46.4 °F 42.4 °F 44.6 °F 93% 30.27 in 10.0 mi North 8.1 mph - N/A   Light Drizzle
3:55 AM 46.4 °F 41.9 °F 44.6 °F 93% 30.26 in 7.0 mi North 9.2 mph - 0.01 in Rain Rain
4:15 AM 44.6 °F 39.2 °F 44.6 °F 100% 30.27 in 10.0 mi North 10.4 mph 16.1 mph 0.01 in Rain Rain
4:35 AM 44.6 °F 40.2 °F 42.8 °F 93% 30.29 in 10.0 mi North 8.1 mph 17.3 mph 0.01 in   Light Drizzle
4:55 AM 42.8 °F 36.6 °F 41.0 °F 93% 30.30 in 7.0 mi North 11.5 mph 24.2 mph 0.02 in Rain Rain
5:15 AM 42.8 °F 36.6 °F 41.0 °F 93% 30.31 in 2.5 mi North 11.5 mph 20.7 mph 0.08 in Rain Heavy Rain
5:35 AM 42.8 °F 38.0 °F 41.0 °F 93% 30.31 in 7.0 mi North 8.1 mph - 0.12 in Rain Heavy Rain
5:55 AM 41.0 °F 34.3 °F 41.0 °F 100% 30.33 in 2.5 mi North 11.5 mph 16.1 mph 0.17 in Rain Rain
6:15 AM 41.0 °F 35.8 °F 41.0 °F 100% 30.34 in 3.0 mi North 8.1 mph - 0.04 in Rain Heavy Rain
6:35 AM 41.0 °F 34.3 °F 41.0 °F 100% 30.35 in 3.0 mi North 11.5 mph - 0.09 in Rain Rain
6:55 AM 41.0 °F 35.2 °F 41.0 °F 100% 30.36 in 10.0 mi North 9.2 mph 17.3 mph 0.10 in Rain Light Rain
7:15 AM 42.8 °F 37.0 °F 41.0 °F 93% 30.36 in 10.0 mi North 10.4 mph 18.4 mph N/A Rain Light Rain
7:35 AM 42.8 °F 37.0 °F 41.0 °F 93% 30.37 in 7.0 mi North 10.4 mph - N/A Rain Rain
7:55 AM 41.0 °F 35.8 °F 39.2 °F 93% 30.38 in 10.0 mi North 8.1 mph - 0.01 in Rain Light Rain
8:15 AM 41.0 °F 36.4 °F 39.2 °F 93% 30.40 in 10.0 mi North 6.9 mph 19.6 mph N/A   Overcast
8:35 AM 41.0 °F 36.4 °F 37.4 °F 87% 30.41 in 10.0 mi North 6.9 mph - N/A Rain Light Rain
8:55 AM 41.0 °F 36.4 °F 35.6 °F 81% 30.41 in 10.0 mi North 6.9 mph - N/A   Overcast
9:15 AM 41.0 °F 35.2 °F 35.6 °F 81% 30.42 in 10.0 mi North 9.2 mph - N/A   Overcast
9:35 AM 41.0 °F 33.9 °F 33.8 °F 76% 30.42 in 10.0 mi North 12.7 mph 20.7 mph N/A   Overcast
9:55 AM 42.8 °F 35.1 °F 33.8 °F 70% 30.42 in 10.0 mi North 16.1 mph 20.7 mph N/A   Mostly Cloudy
10:15 AM 42.8 °F 37.0 °F 33.8 °F 70% 30.42 in 10.0 mi North 10.4 mph 16.1 mph N/A   Scattered Clouds
10:35 AM 42.8 °F 35.8 °F 33.8 °F 70% 30.43 in 10.0 mi NNW 13.8 mph 20.7 mph N/A   Clear
10:55 AM 42.8 °F 34.5 °F 32.0 °F 66% 30.41 in 10.0 mi North 18.4 mph 25.3 mph N/A   Clear
11:15 AM 44.6 °F 39.7 °F 33.8 °F 66% 30.41 in 10.0 mi North 9.2 mph - N/A   Scattered Clouds
11:35 AM 44.6 °F 37.8 °F 33.8 °F 66% 30.40 in 10.0 mi NW 15.0 mph 21.9 mph N/A   Clear
11:55 AM 46.4 °F 40.7 °F 33.8 °F 62% 30.40 in 10.0 mi NNW 12.7 mph 18.4 mph N/A   Clear
12:15 PM 46.4 °F 39.8 °F 32.0 °F 57% 30.39 in 10.0 mi NW 16.1 mph 20.7 mph N/A   Clear
12:35 PM 46.4 °F 41.5 °F 32.0 °F 57% 30.39 in 10.0 mi North 10.4 mph 18.4 mph N/A   Clear
12:55 PM 46.4 °F 41.5 °F 32.0 °F 57% 30.38 in 10.0 mi North 10.4 mph - N/A   Clear
1:15 PM 48.2 °F - 32.0 °F 54% 30.37 in 10.0 mi NNW 15.0 mph - N/A   Clear
1:55 PM 48.2 °F - 32.0 °F 54% 30.37 in 10.0 mi North 11.5 mph 17.3 mph N/A   Clear
2:15 PM 48.2 °F - 32.0 °F 54% 30.36 in 10.0 mi North 17.3 mph 21.9 mph N/A   Clear
2:35 PM 46.4 °F 41.9 °F 32.0 °F 57% 30.36 in 10.0 mi North 9.2 mph 18.4 mph N/A   Clear
2:55 PM 46.4 °F 41.5 °F 32.0 °F 57% 30.37 in 10.0 mi North 10.4 mph 21.9 mph N/A   Clear
3:15 PM 46.4 °F 40.4 °F 32.0 °F 57% 30.38 in 10.0 mi NNW 13.8 mph 18.4 mph N/A   Clear
3:35 PM 46.4 °F 40.7 °F 30.2 °F 53% 30.38 in 10.0 mi North 12.7 mph 20.7 mph N/A   Clear
3:55 PM 46.4 °F 41.9 °F 30.2 °F 53% 30.39 in 10.0 mi North 9.2 mph 17.3 mph N/A   Clear
4:15 PM 46.4 °F 40.7 °F 30.2 °F 53% 30.40 in 10.0 mi North 12.7 mph 18.4 mph N/A   Clear
4:35 PM 44.6 °F 38.8 °F 30.2 °F 57% 30.40 in 10.0 mi North 11.5 mph 18.4 mph N/A   Clear
4:55 PM 44.6 °F 39.7 °F 30.2 °F 57% 30.41 in 10.0 mi North 9.2 mph 16.1 mph N/A   Clear
5:15 PM 42.8 °F 37.0 °F 30.2 °F 61% 30.41 in 10.0 mi North 10.4 mph - N/A   Clear
5:35 PM 42.8 °F 37.5 °F 30.2 °F 61% 30.42 in 10.0 mi North 9.2 mph - N/A   Clear
5:55 PM 41.0 °F 34.7 °F 30.2 °F 65% 30.43 in 10.0 mi North 10.4 mph - N/A   Clear
6:15 PM 41.0 °F 35.2 °F 30.2 °F 65% 30.45 in 10.0 mi North 9.2 mph - N/A   Clear
6:35 PM 41.0 °F 36.4 °F 30.2 °F 65% 30.46 in 10.0 mi North 6.9 mph - N/A   Clear
6:55 PM 39.2 °F 33.0 °F 30.2 °F 70% 30.46 in 10.0 mi NNW 9.2 mph - N/A   Clear
7:15 PM 39.2 °F 33.6 °F 30.2 °F 70% 30.46 in 10.0 mi NNW 8.1 mph - N/A   Clear
7:35 PM 37.4 °F 30.8 °F 30.2 °F 75% 30.47 in 10.0 mi NNW 9.2 mph - N/A   Clear
7:55 PM 37.4 °F 30.8 °F 30.2 °F 75% 30.47 in 10.0 mi NNW 9.2 mph - N/A   Clear
8:15 PM 37.4 °F 30.3 °F 30.2 °F 75% 30.48 in 10.0 mi NNW 10.4 mph - N/A   Clear
8:35 PM 37.4 °F 30.8 °F 28.4 °F 70% 30.48 in 10.0 mi NNW 9.2 mph - N/A   Clear
8:55 PM 37.4 °F 30.8 °F 28.4 °F 70% 30.49 in 10.0 mi NNW 9.2 mph - N/A   Clear
9:15 PM 37.4 °F 30.8 °F 28.4 °F 70% 30.49 in 10.0 mi NNW 9.2 mph - N/A   Clear
9:35 PM 37.4 °F 31.4 °F 28.4 °F 70% 30.49 in 10.0 mi NNW 8.1 mph - N/A   Clear
9:55 PM 37.4 °F 31.4 °F 28.4 °F 70% 30.49 in 10.0 mi NNW 8.1 mph - N/A   Clear
10:15 PM 35.6 °F 30.7 °F 28.4 °F 75% 30.49 in 10.0 mi NNW 5.8 mph - N/A   Clear
10:35 PM 35.6 °F 30.7 °F 28.4 °F 75% 30.49 in 10.0 mi NNW 5.8 mph - N/A   Clear
10:55 PM 35.6 °F 30.7 °F 28.4 °F 75% 30.49 in 10.0 mi NNW 5.8 mph - N/A   Clear
11:15 PM 35.6 °F 30.7 °F 28.4 °F 75% 30.50 in 10.0 mi North 5.8 mph - N/A   Clear
11:35 PM 35.6 °F 32.8 °F 28.4 °F 75% 30.50 in 10.0 mi North 3.5 mph - N/A   Clear
11:55 PM 35.6 °F 31.7 °F 28.4 °F 75% 30.51 in 10.0 mi North 4.6 mph - N/A   Clear